Regional Weather Roundup
Issued by NWS

Home | Current Version | Previous Version | Graphics & Text | Print | Product List | Glossary On
Versions: 1 2 3 4 5 6 7 8 9 10 11 12 13 14 15 16 17 18 19 20 21 22 23 24 25 26 27 28 29 30 31 32 33 34 35 36 37 38 39 40 41 42 43 44 45 46 47 48 49 50
000
ASUS45 KSLC 011810
RWRUT

UTAH REGIONAL WEATHER ROUNDUP
NATIONAL WEATHER SERVICE SALT LAKE CITY UT
1100 AM MST SUN MAR 01 2015

UTZ001>011-023>025-011900-

NORTHERN UTAH

CITY           SKY/WX    TMP DP  RH WIND       PRES   REMARKS
BRIGHAM CITY   SUNNY     40  18  39 NW5       30.11S
HILL AFB       SUNNY     41  20  43 E8        30.09R
LOGAN          SUNNY     34  16  47 CALM      30.13F
OGDEN          SUNNY     42  21  43 S13       30.09S
PROVO AIRPORT  PTSUNNY   36  32  87 CALM      30.11R
SALT LAKE CITY MOSUNNY   41  27  57 CALM      30.10S
VERNAL         CLOUDY    33  24  69 NE7       30.13R WCI  27
WENDOVER       SUNNY     39  14  35 CALM      30.12S
HEBER CITY     PTSUNNY   32  23  69 CALM      30.09S
WEST JORDAN    SUNNY     39  28  65 N3        30.09S

$$

UTZ012>022-026-027-011900-

SOUTHERN/CENTRAL UTAH

CITY           SKY/WX    TMP DP  RH WIND       PRES   REMARKS
BLANDING       CLOUDY    33  33 100 NE5       30.18S WCI  28
BRYCE CANYON   LGT SNOW  26  23  88 CALM      30.06R FOG
CEDAR CITY     PTSUNNY   33  26  75 W3        30.03R
DELTA          CLOUDY    36  33  87 CALM      30.08S
HANKSVILLE     CLOUDY    36  32  87 CALM      30.14R
MILFORD        CLOUDY    37  30  75 NE7       30.07S WCI  32
MOAB/CYNLANDS  MOSUNNY   42  33  70 CALM      30.08S
PRICE          PTSUNNY   37  28  70 S6        30.08R WCI  32
ST GEORGE      CLOUDY    46  36  66 NW6       30.06F
KANAB          CLOUDY    36  36 100 NW12      30.10R WCI  27

$$

REGIONAL REPORTS     COLORADO/ARIZONA

CITY           SKY/WX    TMP DP  RH WIND       PRES   REMARKS
CRAIG, CO      CLOUDY    25  18  74 CALM      30.14F
GRAND JUNCTION CLOUDY    41  31  67 SE3       30.09S
RIFLE          CLOUDY    38  27  64 CALM      30.10S
MONTROSE       CLOUDY    37  32  82 N3        30.11S
CORTEZ         MIX PCPN  34  34 100 SW5       30.10F FOG     WCI  30
PAGE, AZ       LGT RAIN  38  35  89 W3        30.08R FOG
GRAND CANYON   SNOW      33  32  96 CALM      30.05R VSB 1/4
KINGMAN        CLOUDY    50  35  56 SW5       29.99S
FLAGSTAFF      HVY SNOW  33  31  92 CALM      30.06R VSB 1/4

$$

REGIONAL REPORTS    NEVADA/IDAHO/WYOMING

CITY           SKY/WX    TMP DP  RH WIND       PRES   REMARKS
LAS VEGAS, NV  CLOUDY    53  33  46 NE3       29.96S
ELY            PTSUNNY   32  26  78 E5        30.05R WCI  27
ELKO           SUNNY     40  19  43 NE10      30.06R WCI  33
POCATELLO, ID  SUNNY     29   5  36 NE7       30.18S WCI  22
BURLEY         SUNNY     32   1  26 E13       30.16F WCI  22
EVANSTON, WY   PTSUNNY   21  15  78 E13       30.09S WCI   9
ROCK SPRINGS   SUNNY     20  10  65 NE7       30.14F WCI  11

$$



USA.gov is the U.S. government's official web portal to all federal, state and local government web resources and services.